This is the latest recevied weather packets stored in our database for station/object K6CEG. If no packets are shown the sender has not sent any weather packets the latest 10 day(s).
| Time | Temp. | Humidity | Pressure | Rain* | Wind** | Luminosity | Snow |
|---|---|---|---|---|---|---|---|
| 1788277135 | 21.67° C | 65% | 1017.5 hPa | 0 mm | - | 204 W/m² | - |
| 1788276834 | 21.67° C | 65% | 1017.7 hPa | 0 mm | - | 203 W/m² | - |
| 1788276534 | 20.56° C | 68% | 1017.6 hPa | 0 mm | - | 195 W/m² | - |
| 1788276229 | 20° C | 69% | 1017.7 hPa | 0 mm | - | 177 W/m² | - |
| 1788275924 | 20° C | 70% | 1017.8 hPa | 0 mm | - | 166 W/m² | - |
| 1788275624 | 20.56° C | 69% | 1017.6 hPa | 0 mm | - | 98 W/m² | - |
| 1788275323 | 20.56° C | 70% | 1017.4 hPa | 0 mm | - | 177 W/m² | - |
| 1788275021 | 20° C | 71% | 1017.3 hPa | 0 mm | - | 130 W/m² | - |
| 1788274719 | 19.44° C | 73% | 1017.3 hPa | 0 mm | - | 98 W/m² | - |
| 1788274419 | 18.89° C | 75% | 1017 hPa | 0 mm | - | 73 W/m² | - |
| 1788274114 | 17.78° C | 77% | 1017.1 hPa | 0 mm | - | 55 W/m² | - |
| 1788273809 | 17.78° C | 77% | 1016.9 hPa | 0 mm | - | 34 W/m² | - |
| 1788273505 | 17.22° C | 78% | 1017 hPa | 0 mm | - | 29 W/m² | - |
| 1788273201 | 17.22° C | 79% | 1017 hPa | 0 mm | - | 26 W/m² | - |
| 1788272898 | 16.67° C | 80% | 1016.8 hPa | 0 mm | - | 23 W/m² | - |
| 1788272596 | 16.67° C | 80% | 1016.9 hPa | 0 mm | - | 21 W/m² | - |
| 1788272291 | 16.67° C | 81% | 1016.9 hPa | 0 mm | - | 20 W/m² | - |
| 1788271986 | 16.67° C | 81% | 1017 hPa | 0 mm | - | 18 W/m² | - |
| 1788271685 | 16.67° C | 81% | 1017 hPa | 0 mm | - | 16 W/m² | - |
| 1788271384 | 16.67° C | 81% | 1016.8 hPa | 0 mm | - | 14 W/m² | - |
| 1788271079 | 16.67° C | 81% | 1016.9 hPa | 0 mm | - | 11 W/m² | - |
| 1788270779 | 16.11° C | 81% | 1016.8 hPa | 0 mm | - | 9 W/m² | - |
| 1788270476 | 15.56° C | 81% | 1016.7 hPa | 0 mm | - | 7 W/m² | - |
| 1788270175 | 15.56° C | 80% | 1016.6 hPa | 0 mm | - | 6 W/m² | - |
| 1788269874 | 16.11° C | 80% | 1016.5 hPa | 0 mm | - | 3 W/m² | - |
* Rain latest hour (hover to see other rain measurements)
** Current wind speed in m/s (hover to see current wind gust speed)